DW2917 Weather Reports


time (UTC)temp
C
wind
direction
speed
KPH
gust
KPH
rain 1hr
cm
rain 24hr
cm
rain mn
cm
humidity
%
barometer
mb
20260504140107 15 227 6.4 0.0 0.00 0.00 0.00 47 1013.3
20260504100105 6 305 0.0 0.0 0.00 0.00 0.00 82 1013.9
20260504090118 6 305 0.0 0.0 0.00 0.00 0.00 79 1014.3
20260504081554 5 305 0.0 0.0 0.00 0.00 0.00 75 1014.5
20260504044546 5 305 0.0 0.0 0.00 0.00 0.00 77 1015.1
20260504043035 4 305 0.0 0.0 0.00 0.00 0.00 78 1015.1
20260504041531 4 305 1.6 0.0 0.00 0.00 0.00 77 1015.1
20260504040031 5 305 0.0 0.0 0.00 0.00 0.00 75 1015.0
20260504034538 5 305 1.6 0.0 0.00 0.00 0.00 76 1015.0
20260504033037 5 305 0.0 0.0 0.00 0.00 0.00 75 1014.6
20260504031528 5 306 0.0 0.0 0.00 0.00 0.00 73 1014.7
20260504030027 6 305 0.0 0.0 0.00 0.00 0.00 70 1014.6
20260504024559 5 305 0.0 0.0 0.00 0.00 0.00 72 1014.6
20260504023053 6 305 0.0 0.0 0.00 0.00 0.00 69 1014.6
20260504021553 6 305 0.0 0.0 0.00 0.00 0.00 65 1014.5
20260504020051 6 306 0.0 0.0 0.00 0.00 0.00 67 1014.6
20260504014552 7 305 0.0 0.0 0.00 0.00 0.00 62 1014.5
20260504013051 8 305 0.0 0.0 0.00 0.00 0.00 60 1014.5
20260504011551 8 305 0.0 0.0 0.00 0.00 0.00 59 1014.1
20260504010056 10 305 0.0 0.0 0.00 0.00 0.00 50 1014.1
20260504004549 10 305 0.0 0.0 0.00 0.00 0.00 53 1014.1
20260504003051 11 305 0.0 0.0 0.00 0.00 0.00 46 1013.9
20260504001607 11 305 0.0 0.0 0.00 0.00 0.00 45 1013.6
20260504000049 12 305 0.0 0.0 0.00 0.00 0.00 43 1013.5
20260503234548 13 307 1.6 0.0 0.00 0.00 0.00 38 1013.5
20260503233046 13 301 4.8 0.0 0.00 0.00 0.00 37 1013.4
20260503231547 14 314 9.7 0.0 0.00 0.00 0.00 35 1013.2
20260503230046 14 0 8.0 0.0 0.00 0.00 0.00 36 1013.1
20260503224546 15 279 12.9 0.0 0.00 0.00 0.00 32 1013.2
20260503223046 15 294 12.9 0.0 0.00 0.00 0.00 32 1013.3
20260503221545 15 296 12.9 0.0 0.00 0.00 0.00 35 1013.2
20260503220103 15 309 12.9 0.0 0.00 0.00 0.00 34 1013.2
20260503214546 15 327 17.7 0.0 0.00 0.00 0.00 32 1013.4
20260503213039 15 301 16.1 0.0 0.00 0.00 0.00 34 1013.2
20260503211542 15 290 14.5 0.0 0.00 0.00 0.00 32 1013.1
20260503210034 15 319 17.7 0.0 0.00 0.00 0.00 32 1013.4
20260503204533 15 308 16.1 0.0 0.00 0.00 0.00 33 1013.2
20260503203134 15 281 14.5 0.0 0.00 0.00 0.00 34 1013.4
20260503201535 15 334 12.9 0.0 0.00 0.00 0.00 33 1013.4
20260503200036 15 349 16.1 0.0 0.00 0.00 0.00 34 1013.5
20260503194534 15 302 14.5 0.0 0.00 0.00 0.00 35 1013.9
20260503193035 14 320 16.1 0.0 0.00 0.00 0.00 36 1014.0
20260503191535 14 272 12.9 0.0 0.00 0.00 0.00 38 1014.1
20260503190031 13 310 12.9 0.0 0.00 0.00 0.00 37 1014.2
20260503184529 13 317 11.3 0.0 0.00 0.00 0.00 45 1014.5
20260503183035 12 270 17.7 0.0 0.00 0.00 0.00 38 1014.7
20260503181542 13 287 14.5 0.0 0.00 0.00 0.00 38 1014.8
20260503180025 12 296 11.3 0.0 0.00 0.00 0.00 42 1015.1
20260503174524 12 332 17.7 0.0 0.00 0.00 0.00 41 1014.8
20260503173040 12 336 17.7 0.0 0.00 0.00 0.00 40 1015.1
20260503171521 12 331 14.5 0.0 0.00 0.00 0.00 42 1015.3